Location: Caoba
(9.7667°N, 67.4833°W)
Time: 19:13:09
(UTC+00:00)

GOES 2 Rocket - Pass Details

Date: 06 December 2024
Orbit: 569 x 1662 km, 28.4° (Epoch: 14 January)

Event Time Altitude Azimuth Distance (km) Brightness Sun altitude
Rises 22:32:22 0° 205° (SSW) 4,791 8.4 -6.3°
Reaches altitude 10° 22:38:59 10° 175° (S) 3,606 7.2 -7.8°
Maximum altitude 22:41:41 11° 158° (SSE) 3,381 6.8 -8.4°
Drops below altitude 10° 22:44:14 10° 141° (SE) 3,378 6.6 -9.0°
Enters shadow 22:49:31 - 111° (ESE) 4,013 6.8 -10.2°
